User: anonymous   Login
Location: Lawrence Hall of Science
(37.8785°N, 122.2415°W)
Time: 16:48:29
(UTC-08:00)
Language:

Cosmos 1461 - Orbit

View from above orbital plane
View from above orbital plane
View from above satellite
View from above satellite

Ground track
Ground track

The orbit data is extracted from the following two-line orbital elements,

1 14064U 83044A   16340.06537174  .00000467  00000-0  56424-4 0  9993
2 14064  64.9998 165.2693 0088288 128.7224 232.1827 14.93361054694363
Epoch (UTC): 05 December 2016 01:34:08
Eccentricity: 0.0088288
inclination: 64.9998°
perigee height: 526 km
apogee height: 649 km
right ascension of ascending node: 165.2693°
argument of perigee: 128.7224°
revolutions per day: 14.93361054
mean anomaly at epoch: 232.1827°
orbit number at epoch: 69436

The dashed part of the orbit path shows where the satellite is in the earth's shadow,  

DLR